Gainesville, FL

2:26 PM EST on February 23, 2017 (GMT -0500)
Gainesville Regional

Weather History for KGNV - December, 2014

Change the Weather History Date:

Wednesday, December 3, 2014

  Actual Average Record
Temperature  
Mean Temperature 68 °F 59 °F  
Max Temperature 79 °F 70 °F 86 °F (1978)
Min Temperature 56 °F 47 °F 23 °F (1911)
Degree Days  
Heating Degree Days 0 7  
Month to date heating degree days 1 21  
Since 1 July heating degree days 266 182  
Cooling Degree Days 3 1  
Month to date cooling degree days 7 3  
Year to date cooling degree days 2570 2619  
Growing Degree Days 18 (Base 50)    
Moisture  
Dew Point 59 °F    
Average Humidity 74    
Maximum Humidity 100    
Minimum Humidity 48    
Precipitation  
Precipitation 0.00 in 0.08 in 2.19 in (1971)
Month to date precipitation T 0.22  
Year to date precipitation 48.36 45.15  
Snow  
Snow 0.00 in 0.00 in 0.00 in ()
Month to date snowfall 0.0 0.0  
Since 1 July snowfall 0.0 0.0  
Snow Depth 0.00 in    
Sea Level Pressure  
Sea Level Pressure 30.22 in    
Wind  
Wind Speed 5 mph (NE)    
Max Wind Speed 13 mph    
Max Gust Speed 18 mph    
Visibility 8 miles    
Events      
T = Trace of Precipitation, MM = Missing Value Source: NWS Daily Summary

Daily Weather History Graph

Daily Weather History Graph

Search for Another Location

Airport or City:

Trip Planner

Search our weather history database for the weather conditions in past years. The results will help you decide how hot, cold, wet, or windy it might be!

Date:

Astronomy

Dec. 03, 2014 Rise Set
Actual Time 7:08 AM EST 5:29 PM EST
Civil Twilight 6:42 AM EST 5:55 PM EST
Nautical Twilight 6:12 AM EST 6:25 PM EST
Astronomical Twilight 5:43 AM EST 6:53 PM EST
Moon 3:37 PM EST (12/3) 4:07 AM EST (12/3)
Length of Visible Light 11h 13m
Length of Day
10h 21m
Waxing Gibbous, 91% of the Moon is Illuminated
Dec 3
Waxing Gibbous
Dec 6
Full
Dec 14
Last Quarter
Dec 21
New
Dec 28
First Quarter

Hourly Weather History & Observations

Time (EST) Temp. Dew Point Humidity Pressure Visibility Wind Dir Wind Speed Gust Speed Precip Events Conditions
12:02 AM 61.0 °F 61.0 °F 100% 30.23 in 3.0 mi Calm Calm - N/A   Mostly Cloudy
12:53 AM 60.1 °F 60.1 °F 100% 30.22 in 4.0 mi Calm Calm - N/A   Partly Cloudy
1:53 AM 62.1 °F 61.0 °F 96% 30.20 in 10.0 mi East 5.8 mph - N/A   Mostly Cloudy
2:53 AM 61.0 °F 60.1 °F 97% 30.19 in 7.0 mi Calm Calm - N/A   Partly Cloudy
3:41 AM 57.0 °F 57.0 °F 100% 30.19 in 2.5 mi Calm Calm - N/A   Clear
3:50 AM 57.2 °F 57.2 °F 100% 30.19 in 4.0 mi Calm Calm - N/A   Clear
3:53 AM 57.0 °F 57.0 °F 100% 30.19 in 4.0 mi Calm Calm - N/A   Clear
4:53 AM 57.0 °F 57.0 °F 100% 30.20 in 10.0 mi Calm Calm - N/A   Clear
5:53 AM 59.0 °F 59.0 °F 100% 30.21 in 10.0 mi Calm Calm - N/A   Clear
6:40 AM 59.0 °F 59.0 °F 100% 30.22 in 10.0 mi Calm Calm - N/A   Clear
6:53 AM 59.0 °F 57.9 °F 96% 30.22 in 10.0 mi NNW 3.5 mph - N/A   Clear
7:09 AM 57.9 °F 57.9 °F 100% 30.22 in 8.0 mi Calm Calm - N/A   Partly Cloudy
7:46 AM 59.0 °F 59.0 °F 100% 30.23 in 10.0 mi Calm Calm - N/A   Mostly Cloudy
7:53 AM 60.1 °F 59.0 °F 96% 30.23 in 10.0 mi NNE 3.5 mph - N/A   Mostly Cloudy
8:40 AM 60.1 °F 59.0 °F 96% 30.25 in 2.0 mi North 3.5 mph - N/A   Overcast
8:48 AM 60.8 °F 60.8 °F 100% 30.25 in 1.5 mi North 4.6 mph - N/A   Overcast
8:53 AM 60.1 °F 60.1 °F 100% 30.25 in 1.5 mi NNE 3.5 mph - N/A   Overcast
9:13 AM 62.1 °F 62.1 °F 100% 30.25 in 3.0 mi NNE 3.5 mph - N/A   Overcast
9:53 AM 64.9 °F 62.1 °F 90% 30.26 in 10.0 mi NE 4.6 mph - N/A   Mostly Cloudy
10:13 AM 68.0 °F 63.0 °F 84% 30.26 in 10.0 mi NNE 5.8 mph - N/A   Clear
10:53 AM 71.1 °F 63.0 °F 75% 30.25 in 10.0 mi NNE 4.6 mph - N/A   Clear
11:53 AM 75.0 °F 63.0 °F 66% 30.24 in 10.0 mi Variable 5.8 mph - N/A   Partly Cloudy
12:53 PM 77.0 °F 61.0 °F 58% 30.20 in 10.0 mi ENE 10.4 mph - N/A   Partly Cloudy
1:53 PM 78.1 °F 57.9 °F 50% 30.17 in 10.0 mi East 12.7 mph - N/A   Partly Cloudy
2:53 PM 78.1 °F 59.0 °F 52% 30.17 in 10.0 mi ENE 12.7 mph - N/A   Partly Cloudy
3:53 PM 75.9 °F 57.0 °F 52% 30.16 in 10.0 mi East 9.2 mph - N/A   Clear
4:53 PM 73.9 °F 57.9 °F 57% 30.18 in 10.0 mi ENE 6.9 mph - N/A   Clear
5:53 PM 68.0 °F 59.0 °F 73% 30.19 in 10.0 mi ENE 4.6 mph - N/A   Clear
6:53 PM 64.0 °F 59.0 °F 84% 30.21 in 10.0 mi ENE 5.8 mph - N/A   Clear
7:53 PM 64.0 °F 60.1 °F 87% 30.21 in 10.0 mi ENE 4.6 mph - N/A   Clear
8:53 PM 62.1 °F 59.0 °F 90% 30.22 in 10.0 mi ENE 4.6 mph - N/A   Clear
9:53 PM 60.1 °F 59.0 °F 96% 30.23 in 10.0 mi NE 3.5 mph - N/A   Clear
10:53 PM 60.1 °F 57.9 °F 93% 30.23 in 10.0 mi ENE 3.5 mph - N/A   Clear
11:53 PM 57.9 °F 57.0 °F 97% 30.22 in 10.0 mi Calm Calm - N/A   Clear